Faribault, MN

10:29 AM CST on January 22, 2018 (GMT -0600)
Faribault Municipal

Weather History for KFBL - May, 2013

Change the Weather History Date:

Friday, May 10, 2013

  Actual Average Record
Temperature  
Mean Temperature 50 °F -  
Max Temperature 64 °F 68 °F 92 °F (1987)
Min Temperature 37 °F 43 °F 27 °F (1966)
Degree Days  
Heating Degree Days 14    
Moisture  
Dew Point 34 °F    
Average Humidity 55    
Maximum Humidity 81    
Minimum Humidity 26    
Precipitation  
Precipitation 0.00 in - - ()
Sea Level Pressure  
Sea Level Pressure 30.03 in    
Wind  
Wind Speed 9 mph (NNW)    
Max Wind Speed 16 mph    
Max Gust Speed 21 mph    
Visibility 10 miles    
Events      
Averages and records for this station are not official NWS values.
T = Trace of Precipitation, MM = Missing Value Source: NWS Daily Summary

Daily Weather History Graph

Daily Weather History Graph

Search for Another Location

Airport or City:

Trip Planner

Search our weather history database for the weather conditions in past years. The results will help you decide how hot, cold, wet, or windy it might be!

Date:

Astronomy

May. 10, 2013 Rise Set
Actual Time 5:51 AM CDT 8:28 PM CDT
Civil Twilight 5:18 AM CDT 9:01 PM CDT
Nautical Twilight 4:37 AM CDT 9:43 PM CDT
Astronomical Twilight 3:49 AM CDT 10:30 PM CDT
Moon 6:16 AM CDT (5/10) 9:19 PM CDT (5/10)
Length of Visible Light 15h 42m
Length of Day
14h 36m
New Moon, 0% of the Moon is Illuminated
May 10
New Moon
May 17
First Quarter
May 24
Full
May 31
Last Quarter
Jun 8
New

Hourly Weather History & Observations

Time (CDT) Temp. Windchill Dew Point Humidity Pressure Visibility Wind Dir Wind Speed Gust Speed Precip Events Conditions
12:34 AM 44.6 °F 38.4 °F 35.6 °F 71% 30.07 in 10.0 mi North 12.7 mph 16.1 mph N/A   Overcast
12:54 AM 44.6 °F 38.1 °F 33.8 °F 66% 30.08 in 10.0 mi North 13.8 mph 19.6 mph N/A   Overcast
1:14 AM 42.8 °F 35.4 °F 33.8 °F 70% 30.07 in 10.0 mi North 15.0 mph 20.7 mph N/A   Overcast
1:34 AM 42.8 °F 36.2 °F 33.8 °F 70% 30.07 in 10.0 mi North 12.7 mph 18.4 mph N/A   Overcast
1:54 AM 42.8 °F 35.1 °F 33.8 °F 70% 30.07 in 10.0 mi North 16.1 mph 20.7 mph N/A   Overcast
2:14 AM 41.0 °F 33.5 °F 33.8 °F 76% 30.07 in 10.0 mi North 13.8 mph 20.7 mph N/A   Scattered Clouds
2:34 AM 39.2 °F 32.0 °F 33.8 °F 81% 30.07 in 10.0 mi North 11.5 mph 17.3 mph N/A   Clear
2:54 AM 39.2 °F - 33.8 °F 81% 30.07 in 10.0 mi Calm Calm - N/A   Clear
3:14 AM 39.2 °F 31.6 °F 33.8 °F 81% 30.07 in 10.0 mi NNE 12.7 mph 18.4 mph N/A   Clear
3:54 AM 39.2 °F 34.2 °F 33.8 °F 81% 30.07 in 10.0 mi NNE 6.9 mph - N/A   Clear
4:14 AM 39.2 °F 33.6 °F 32.0 °F 75% 30.07 in 10.0 mi North 8.1 mph - N/A   Clear
4:34 AM 37.4 °F 31.4 °F 32.0 °F 81% - 10.0 mi North 8.1 mph - N/A   Clear
4:54 AM 37.4 °F 31.4 °F 32.0 °F 81% 30.08 in 10.0 mi North 8.1 mph - N/A   Clear
5:14 AM 37.4 °F 30.8 °F 30.2 °F 75% 30.08 in 10.0 mi North 9.2 mph - N/A   Clear
5:34 AM 37.4 °F 30.8 °F 30.2 °F 75% 30.08 in 10.0 mi North 9.2 mph - N/A   Clear
5:54 AM 37.4 °F 31.4 °F 30.2 °F 75% 30.08 in 10.0 mi North 8.1 mph - N/A   Clear
6:14 AM 37.4 °F 31.4 °F 30.2 °F 75% 30.08 in 10.0 mi North 8.1 mph - N/A   Clear
6:34 AM 37.4 °F 31.4 °F 30.2 °F 75% 30.08 in 10.0 mi North 8.1 mph - N/A   Clear
7:14 AM 39.2 °F 34.2 °F 30.2 °F 70% 30.09 in 10.0 mi North 6.9 mph - N/A   Clear
7:34 AM 39.2 °F 31.6 °F 30.2 °F 70% 30.09 in 10.0 mi North 12.7 mph - N/A   Clear
8:14 AM 42.8 °F 36.6 °F 32.0 °F 66% 30.09 in 10.0 mi North 11.5 mph - N/A   Clear
8:34 AM 42.8 °F 37.5 °F 32.0 °F 66% 30.08 in 10.0 mi NNE 9.2 mph - N/A   Clear
8:54 AM 42.8 °F 37.0 °F 32.0 °F 66% 30.09 in 10.0 mi North 10.4 mph - N/A   Clear
9:14 AM 44.6 °F 39.2 °F 33.8 °F 66% 30.09 in 10.0 mi NNE 10.4 mph - N/A   Clear
9:34 AM 44.6 °F 39.7 °F 33.8 °F 66% 30.09 in 10.0 mi North 9.2 mph - N/A   Clear
9:54 AM 46.4 °F 42.9 °F 33.8 °F 62% 30.09 in 10.0 mi North 6.9 mph - N/A   Clear
10:14 AM 46.4 °F 42.4 °F 35.6 °F 66% 30.08 in 10.0 mi NNE 8.1 mph - N/A   Clear
10:33 AM 48.2 °F - 35.6 °F 62% 30.08 in 10.0 mi North 6.9 mph - N/A   Clear
10:54 AM 48.2 °F - 37.4 °F 66% 30.08 in 10.0 mi North 6.9 mph - N/A   Clear
11:14 AM 50.0 °F - 37.4 °F 62% 30.08 in 10.0 mi NNW 5.8 mph - N/A   Clear
11:33 AM 51.8 °F - 37.4 °F 58% 30.08 in 10.0 mi NNW 8.1 mph - N/A   Clear
12:14 PM 53.6 °F - 39.2 °F 58% 30.07 in 10.0 mi North 3.5 mph - N/A   Clear
12:34 PM 55.4 °F - 39.2 °F 54% 30.06 in 10.0 mi NW 6.9 mph - N/A   Clear
12:54 PM 55.4 °F - 37.4 °F 51% 30.06 in 10.0 mi NW 6.9 mph - N/A   Clear
1:14 PM 57.2 °F - 35.6 °F 44% 30.06 in 10.0 mi NW 6.9 mph - N/A   Clear
1:34 PM 57.2 °F - 35.6 °F 44% 30.05 in 10.0 mi NW 8.1 mph - N/A   Clear
1:54 PM 60.8 °F - 35.6 °F 39% 30.05 in 10.0 mi WNW 8.1 mph - N/A   Clear
2:14 PM 60.8 °F - 33.8 °F 36% 30.05 in 10.0 mi Calm Calm - N/A   Clear
2:34 PM 60.8 °F - 33.8 °F 36% 30.04 in 10.0 mi NNW 5.8 mph - N/A   Clear
2:54 PM 62.6 °F - 35.6 °F 37% 30.03 in 10.0 mi Calm Calm - N/A   Clear
3:13 PM 62.6 °F - 33.8 °F 34% 30.03 in 10.0 mi NW 8.1 mph - N/A   Clear
3:34 PM 62.6 °F - 30.2 °F 30% 30.02 in 10.0 mi Calm Calm - N/A   Clear
3:54 PM 62.6 °F - 32.0 °F 32% 30.00 in 10.0 mi North 4.6 mph - N/A   Clear
4:14 PM 64.4 °F - 32.0 °F 30% 30.00 in 10.0 mi West 3.5 mph - N/A   Clear
4:34 PM 64.4 °F - 32.0 °F 30% 29.99 in 10.0 mi Calm Calm - N/A   Clear
4:54 PM 64.4 °F - 32.0 °F 30% 29.98 in 10.0 mi Calm Calm - N/A   Clear
5:34 PM 64.4 °F - 32.0 °F 30% 29.97 in 10.0 mi West 4.6 mph - N/A   Clear
5:54 PM 64.4 °F - 28.4 °F 26% 29.97 in 10.0 mi West 5.8 mph - N/A   Clear
6:14 PM 64.4 °F - 32.0 °F 30% 29.96 in 10.0 mi NW 8.1 mph - N/A   Clear
6:34 PM 64.4 °F - 32.0 °F 30% 29.96 in 10.0 mi West 9.2 mph - N/A   Clear
6:54 PM 64.4 °F - 30.2 °F 28% 29.95 in 10.0 mi WNW 5.8 mph - N/A   Clear
7:14 PM 64.4 °F - 30.2 °F 28% 29.95 in 10.0 mi West 4.6 mph - N/A   Clear
7:34 PM 62.6 °F - 32.0 °F 32% 29.95 in 10.0 mi WSW 3.5 mph - N/A   Clear
7:54 PM 62.6 °F - 30.2 °F 30% 29.94 in 10.0 mi Calm Calm - N/A   Clear
8:14 PM 59.0 °F - 37.4 °F 45% 29.94 in 10.0 mi Calm Calm - N/A   Clear
8:34 PM 57.2 °F - 32.0 °F 38% 29.94 in 10.0 mi Calm Calm - N/A   Clear
8:54 PM 55.4 °F - 33.8 °F 44% 29.93 in 10.0 mi SSE 3.5 mph - N/A   Clear
9:14 PM 59.0 °F - 30.2 °F 34% 29.94 in 10.0 mi Calm Calm - N/A   Clear
9:34 PM 57.2 °F - 32.0 °F 38% 29.94 in 10.0 mi SSW 3.5 mph - N/A   Clear
9:54 PM 55.4 °F - 33.8 °F 44% 29.94 in 10.0 mi South 3.5 mph - N/A   Clear
10:14 PM 55.4 °F - 37.4 °F 51% 29.93 in 10.0 mi Calm Calm - N/A   Clear
10:34 PM 53.6 °F - 39.2 °F 58% 29.93 in 10.0 mi SSW 3.5 mph - N/A   Clear
10:54 PM 53.6 °F - 39.2 °F 58% 29.92 in 10.0 mi SSE 3.5 mph - N/A   Mostly Cloudy
11:14 PM 53.6 °F - 39.2 °F 58% 29.92 in 10.0 mi South 3.5 mph - N/A   Mostly Cloudy
11:34 PM 53.6 °F - 41.0 °F 62% 29.91 in 10.0 mi South 4.6 mph - N/A   Mostly Cloudy
11:54 PM 53.6 °F - 42.8 °F 67% 29.91 in 10.0 mi Calm Calm - N/A   Overcast